AO-07 1 07530U 74089B 19163.87852241 -.00000045 00000-0 65953-6 0 9994 2 07530 101.7443 131.5991 0012267 0.5674 54.3120 12.53638369 39795 UO-11 1 14781U 84021B 19164.64004336 .00000064 00000-0 13948-4 0 9992 2 14781 97.6109 189.5977 0007977 346.9294 13.1713 14.83089825898018 LO-19 1 20442U 90005G 19163.80365702 -.00000010 00000-0 12513-4 0 9995 2 20442 98.6483 105.8135 0012030 161.3993 198.7633 14.32926698535531 HUBBLE 1 20580U 90037B 19164.68752316 .00000348 00000-0 10219-4 0 9995 2 20580 28.4687 245.0298 0002946 71.5862 171.4936 15.09235188400133 MET-2/21 1 22782U 93055A 19164.55282196 .00000037 00000-0 20237-4 0 9990 2 22782 82.5474 167.1522 0021993 189.2353 287.0739 13.83817793302159 AO-27 1 22825U 93061C 19164.53229408 -.00000009 00000-0 14549-4 0 9999 2 22825 98.9027 153.0516 0008787 21.3560 338.7986 14.30060306341212 IO-26 1 22826U 93061D 19164.88491382 -.00000013 00000-0 12880-4 0 9991 2 22826 98.8967 153.4042 0009062 9.2720 350.8627 14.30393839341467 FO-29 1 24278U 96046B 19164.66911729 -.00000017 00000-0 21692-4 0 9993 2 24278 98.5363 318.7614 0349289 252.9957 103.2636 13.53091897127123 NOAA-15 1 25338U 98030A 19164.50445893 .00000083 00000-0 53644-4 0 9997 2 25338 98.7467 185.7805 0009269 256.3362 103.6786 14.25914081 96507 GO-32 1 25397U 98043D 19163.85647243 -.00000028 00000-0 71025-5 0 9990 2 25397 98.6885 104.0713 0002328 69.8181 290.3248 14.23666470 87042 ISS 1 25544U 98067A 19164.85054398 .00000553 00000-0 17117-4 0 9997 2 25544 51.6450 17.8592 0007952 45.5117 130.7023 15.51196598174739 NO-44 1 26931U 01043C 19163.90754221 -.00000041 00000-0 16175-4 0 9999 2 26931 067.0519 018.6071 0006613 279.5298 080.5055 14.30544298924077 SO-50 1 27607U 02058C 19163.92137983 -.00000060 00000-0 12563-4 0 9997 2 27607 064.5559 067.2387 0081537 257.6348 101.5619 14.75551721886058 CO-55 1 27844U 03031E 19163.88393588 .00000043 00000-0 38817-4 0 9992 2 27844 98.6835 172.1845 0010832 52.7874 307.4290 14.22180553827464 CO-57 1 27848U 03031J 19163.87442021 .00000034 00000-0 35050-4 0 9998 2 27848 98.6914 172.6740 0010860 62.8055 297.4228 14.21775291827310 RS-22 1 27939U 03042A 19164.72717025 .00000058 00000-0 19008-4 0 9996 2 27939 98.0394 300.6408 0014302 84.1119 276.1716 14.66784130839819 NOAA-18 1 28654U 05018A 19164.32322107 .00000061 00000-0 58217-4 0 9994 2 28654 99.0960 211.2125 0014233 188.5672 171.5258 14.12430330724760 CO-58 1 28895U 05043F 19164.38120536 .00000092 00000-0 26556-4 0 9992 2 28895 97.9584 307.2944 0016979 13.5118 346.6536 14.63667332726702 Falconsat-3 1 30776U 07006E 19164.29409526 .00001557 00000-0 44651-4 0 9996 2 30776 35.4346 125.1224 0001771 50.9607 309.1277 15.36167695679853 CO-65 1 32785U 08021C 19164.77754890 .00000160 00000-0 22875-4 0 9999 2 32785 97.5491 164.7240 0011480 280.8548 79.1377 14.88308783602951 AAUSAT2 1 32788U 08021F 19164.02631535 .00000007 00000-0 56576-5 0 9996 2 32788 97.4968 180.0090 0010781 212.3975 147.6585 14.94721433604078 DO-64 1 32789U 08021G 19164.10675050 .00000792 00000-0 56980-4 0 9995 2 32789 97.4643 213.9411 0013432 138.9522 221.2720 15.06939082606122 CO-66 1 32791U 08021J 19163.59614718 .00000140 00000-0 19628-4 0 9999 2 32791 097.5275 169.5657 0011715 256.8552 103.1359 14.90817454603123 RS-30 1 32953U 08025A 19164.89604525 .00000021 00000-0 75656-4 0 9993 2 32953 82.4998 147.7473 0019914 136.2626 224.0038 12.43089937501716 PRISM 1 33493U 09002B 19164.78177863 .00000522 00000-0 51323-4 0 9998 2 33493 98.1220 85.5501 0014709 194.5338 165.5462 14.96645588564419 NOAA-19 1 33591U 09005A 19164.51766180 .00000053 00000-0 53868-4 0 9992 2 33591 99.1793 155.5160 0014598 36.6408 323.5758 14.12357674533181 TISAT-1 1 36799U 10035E 19164.38096365 .00000315 00000-0 37881-4 0 9994 2 36799 98.1550 316.3573 0013676 102.5980 257.6767 14.91099970483970 JUGNU 1 37839U 11058B 19161.06731455 .00000303 00000-0 19646-4 0 9990 2 37839 19.9627 27.0744 0018910 231.8973 293.9955 14.12652011396038 SRMSAT 1 37841U 11058D 19163.07696667 .00000282 00000-0 99804-5 0 9992 2 37841 19.9727 71.5238 0012056 124.0741 2.4704 14.10633220395757 AO-71 1 37854U 11061E 19163.64974579 .00001129 00000-0 65195-4 0 9990 2 37854 101.7024 58.7949 0161022 83.7758 278.1770 15.06393179416081 HRBE 1 37855U 11061F 19164.68164383 .00000798 00000-0 47757-4 0 9995 2 37855 101.7155 57.7094 0173767 91.6354 270.4769 15.05399639416029 ALMASAT-1 1 38078U 12006B 19164.71909714 .00018898 41375-5 10883-3 0 9996 2 38078 69.4280 280.5707 0165429 269.5857 198.4808 15.62761421396714 HORYU-2 1 38340U 12025D 19164.08339815 .00000124 00000-0 26131-4 0 9990 2 38340 98.3292 202.5061 0012505 137.5333 222.6845 14.75717326380336 RS-40 1 38735U 12041C 19164.71625570 .00000029 00000-0 13742-3 0 9999 2 38735 82.4758 231.1823 0015770 245.6034 114.3396 12.42578744311934 BEESAT-3 1 39135U 13015F 19164.07507483 .00000801 00000-0 49586-4 0 9991 2 39135 64.8692 56.8532 0020138 323.3780 36.5968 15.17452935339393 BEESAT-2 1 39136U 13015G 19163.91216660 .00000677 00000-0 44079-4 0 9991 2 39136 064.8700 061.1837 0019054 302.2276 057.7002 15.16881446338904 ZACUBE-1 1 39417U 13066B 19164.03019101 .00000174 00000-0 28180-4 0 9991 2 39417 97.5623 177.8502 0060270 53.5511 307.1237 14.81112141300205 TRITON-1 1 39427U 13066M 19163.93371039 .00000164 00000-0 34116-4 0 9996 2 39427 097.6754 141.6680 0113656 183.1558 176.8945 14.67837465297306 GOMX-1 1 39430U 13066Q 19164.75399352 .00000151 00000-0 36897-4 0 9993 2 39430 97.7463 121.6308 0149776 269.9848 88.4196 14.59250509295886 LO-74 1 39440U 13066AA 19164.80188707 .00000162 00000-0 29240-4 0 9996 2 39440 97.6016 163.5280 0081871 100.6677 260.3766 14.75850709299251 AO-73 1 39444U 13066AE 19164.03387832 .00000219 00000-0 33204-4 0 9993 2 39444 97.5605 179.7936 0059277 47.6123 313.0086 14.81930024299095 SPROUT 1 39770U 14029E 19164.85496024 .00000399 00000-0 50294-4 0 9996 2 39770 97.8838 268.1779 0010341 99.2332 261.0058 14.87331298274111 DUCHIFAT-1 1 40021U 14033M 19164.03963216 .00000180 00000-0 24277-4 0 9994 2 40021 97.9242 88.6145 0014456 70.6242 289.6536 14.90622510270700 NANOSATCBR1 1 40024U 14033Q 19164.73507273 .00000291 00000-0 36220-4 0 9995 2 40024 97.9140 86.7477 0013692 71.8167 288.4540 14.89838083270701 EO-79 1 40025U 14033R 19164.39119104 .00000220 00000-0 29412-4 0 9997 2 40025 97.9065 84.0838 0013953 78.0774 282.2007 14.88938549270531 DTUSAT-2 1 40030U 14033W 19164.31856559 .00000182 00000-0 25602-4 0 9991 2 40030 97.8985 82.1806 0013404 74.3469 285.9225 14.88531844270452 EO-80 1 40032U 14033Y 19164.39113993 .00000184 00000-0 25826-4 0 9999 2 40032 97.8990 82.2541 0013344 74.7903 285.4789 14.88473887270459 ANTELSAT 1 40034U 14033AA 19164.20737926 .00000144 00000-0 28612-4 0 9991 2 40034 97.7619 31.6180 0060077 113.5298 247.2239 14.74099576267860 VELOX-1 1 40057U 14034E 19164.80127626 .00000269 00000-0 45223-4 0 9998 2 40057 98.2341 287.7823 0009601 246.9708 113.0490 14.77661697267045 DAURIA DX 1 1 40071U 14037C 19164.69112126 .00000079 00000-0 17608-4 0 9998 2 40071 98.4259 318.3198 0007241 239.1418 120.9086 14.81269397266512 UKUBE-1 1 40074U 14037F 19164.77562627 .00000293 00000-0 42358-4 0 9993 2 40074 98.4367 326.4554 0003098 216.6760 143.4241 14.84049409266928 HODOYOSHI-1 1 40299U 14070B 19164.79036403 .00000499 00000-0 23878-4 0 9993 2 40299 97.3482 244.6458 0014439 61.9788 52.4045 15.23358794255528 CHUBUSAT-1 1 40300U 14070C 19164.86523380 .00000450 00000-0 22566-4 0 9999 2 40300 97.3275 239.1713 0021683 74.1610 37.8260 15.22076031255282 QSAT-EOS 1 40301U 14070D 19164.79106998 .00001388 00000-0 56420-4 0 9991 2 40301 97.3262 242.0894 0027448 58.3157 56.2746 15.25903867255549 FIREBIRD FU3 1 40377U 15003B 19164.48080903 .00001653 00000-0 68512-4 0 9994 2 40377 99.1126 143.6522 0128352 107.6830 253.8460 15.18729324241131 FIREBIRD FU4 1 40378U 15003C 19164.53389427 .00001702 00000-0 70334-4 0 9994 2 40378 99.1129 143.7921 0128572 107.4015 254.1321 15.18735633241147 GRIFEX 1 40379U 15003D 19164.44726597 .00001043 00000-0 48373-4 0 9994 2 40379 99.1120 137.7874 0136318 125.8911 235.5061 15.15436845240799 NO-84 1 40654U 15025D 19164.35068854 .00004995 00000 0 76112-4 0 6413 2 40654 54.9884 197.1243 0135232 313.4377 45.5515 15.46837706111623 NO-83 1 40655U 15025E 19164.38742078 .00050091 11406-4 26162-3 0 7745 2 40655 54.9656 83.1678 0059157 24.5858 335.7987 15.78936770112884 DEORBITSAIL 1 40719U 15032E 19163.69349510 .00000283 00000-0 47604-4 0 9997 2 40719 97.9095 55.6401 0015815 330.6923 29.3399 14.76732401211373 NUDT-PHONESAT 1 40900U 15049B 19164.71914128 .00001534 00000-0 68652-4 0 9990 2 40900 97.4367 174.1032 0012206 195.1648 280.1412 15.22754496206904 XW-2A 1 40903U 15049E 19164.78132199 .00001514 00000-0 37667-4 0 9990 2 40903 97.3384 207.5181 0014218 155.9623 295.3515 15.41818971209492 XW-2C 1 40906U 15049H 19164.78877520 .00000407 00000-0 24873-4 0 9992 2 40906 97.4666 166.9492 0013645 211.3515 273.8170 15.15662448206258 XW-2D 1 40907U 15049J 19164.83242078 .00000297 00000-0 18987-4 0 9999 2 40907 97.4650 166.6699 0013146 208.1334 273.8102 15.15847820206273 LILACSAT-2 1 40908U 15049K 19164.77409928 -.00000087 00000-0 -11962-5 0 9998 2 40908 97.4781 165.4791 0014680 215.4153 266.9206 15.13791581206068 XW-2E 1 40909U 15049L 19164.69752438 .00000603 00000-0 33175-4 0 9998 2 40909 97.4591 169.3149 0012794 202.9054 246.5032 15.17760025206438 XW-2F 1 40910U 15049M 19164.79945778 .00000901 00000-0 48521-4 0 9994 2 40910 97.4621 168.6020 0013855 201.2053 283.4217 15.17276420206272 XW-2B 1 40911U 15049N 19164.72633973 .00000666 00000-0 38344-4 0 9999 2 40911 97.4678 167.2105 0013121 208.0783 238.4753 15.15781235206150 DCBB 1 40912U 15049P 19164.70020720 .00000774 00000-0 39510-4 0 9994 2 40912 97.4493 172.1199 0014601 183.5527 268.3467 15.19582605206553 TW-1C 1 40926U 15051B 19164.82601972 .00008913 00000-0 13116-3 0 9995 2 40926 97.1362 211.0077 0009233 40.5811 47.5535 15.55625090209407 TW-1A 1 40928U 15051D 19164.88839432 .00002697 00000-0 67798-4 0 9996 2 40928 97.1454 196.2996 0013152 90.6741 33.4610 15.40739329208433 IO-86 1 40931U 15052B 19164.21577604 .00000713 00000-0 10364-4 0 9992 2 40931 5.9987 95.6859 0012679 78.0188 282.1472 14.76608103200459 LQSat 1 40958U 15057A 19164.33349998 .00000041 00000-0 14084-4 0 9999 2 40958 97.8988 233.6747 0016763 256.9347 103.0004 14.73081117198018 AO-85 1 40967U 15058D 19164.30627539 -.00000011 00000 0 17526-4 0 7165 2 40967 64.7746 174.7305 0201270 204.5323 154.6075 14.75950482106943 ATHENOXAT-1 1 41168U 15077C 19164.50067460 .00001441 00000-0 40667-4 0 9996 2 41168 14.9877 254.1225 0011657 21.3394 338.7412 15.13617660193198 ChubuSat-2 1 41338U 16012B 19164.16904962 .00000239 00000-0 11870-4 0 9992 2 41338 31.0016 179.8663 0013768 48.3827 311.7986 15.00149831182085 ChubuSat-3 1 41339U 16012C 19164.40530833 .00000238 00000-0 11761-4 0 9990 2 41339 31.0083 176.4661 0013721 57.1586 303.0364 15.00325954182110 Horyu-4 1 41340U 16012D 19164.18619070 .00000315 00000-0 17230-4 0 9991 2 41340 31.0035 169.3208 0013958 74.4452 285.7724 15.01261327182180 OUFTI-1 1 41458U 16025C 19163.80763469 .00000567 00000-0 33070-4 0 9994 2 41458 98.1014 250.3506 0166967 17.3894 343.2955 15.05797388171693 e-st@r-II 1 41459U 16025D 19164.81966681 .00001060 00000-0 58219-4 0 9999 2 41459 98.1011 251.0819 0168197 15.3775 345.2468 15.05447756171815 AAUSAT4 1 41460U 16025E 19164.73502444 .00000664 00000-0 37493-4 0 9995 2 41460 98.0934 252.2163 0157936 8.4450 351.9368 15.07313435171920 LO-87 1 41557U 16033B 19164.80240066 .00000886 00000-0 35976-4 0 9998 2 41557 97.4178 252.3303 0012630 320.7758 39.2565 15.27193660169345 NuSat2 1 41558U 16033C 19164.77755189 .00000947 00000-0 36174-4 0 9991 2 41558 97.4204 253.3356 0011725 322.4025 37.6394 15.29099881169383 Lapan A3 1 41603U 16040E 19164.84510603 -.00000007 00000-0 28385-5 0 9992 2 41603 97.3605 223.6784 0015000 59.8573 64.7657 15.19713909165003 Swayam 1 41607U 16040J 19164.14778829 .00001208 00000-0 53769-4 0 9991 2 41607 97.3658 226.2985 0014851 55.7138 304.5502 15.23275436165032 Pratham 1 41783U 16059A 19164.74349164 .00000023 00000-0 13711-4 0 9995 2 41783 98.0676 224.4346 0034403 41.6039 318.7771 14.62994844144827 AlSat 1N 1 41789U 16059G 19164.80470382 .00000045 00000-0 17637-4 0 9990 2 41789 98.0701 226.4778 0029092 31.5669 328.7267 14.64243604144934 ScatSat 1 41790U 16059H 19164.13414559 -.00000006 00000-0 95500-5 0 9996 2 41790 98.2093 209.3504 0019502 65.5095 294.8131 14.50880507143525 TY-1 1 41844U 16066D 19164.89928067 .00000590 00000-0 27059-4 0 9991 2 41844 97.4049 172.3273 0014236 199.5045 207.5557 15.24266844143966 Pegasus-1 1 41846U 16066F 19164.65850121 .00000234 00000-0 47049-4 0 9998 2 41846 98.7114 204.7771 0366372 253.3128 102.7551 14.37567566135835 CAS-2T 1 41847U 16066G 19164.11168349 .00000051 00000-0 19046-4 0 9997 2 41847 98.7060 204.7507 0364833 251.4970 104.6252 14.37986855136192 EO-88 1 42017U 17008BX 19163.85963718 .00001247 00000-0 52046-4 0 9992 2 42017 97.4034 231.0138 0006296 173.8859 186.2457 15.25504307129035 NJUST-1 1 42722U 98067MB 19164.85013978 .00149749 20601-4 29154-3 0 9990 2 42722 51.6316 294.1126 0003763 302.5474 141.5142 15.99935066117662 nSIGHT1 1 42726U 98067MF 19164.74987278 .00018348 00000-0 14651-3 0 9998 2 42726 51.6367 333.9857 0004934 157.3391 202.7825 15.71178902117048 Aoxiang-1 1 42735U 98067MQ 19164.60343645 .00369216 78953-4 37299-3 0 9999 2 42735 51.6216 290.6696 0009348 317.6360 131.9585 16.10292130118818 CAS-4B 1 42759U 17034B 19164.44410881 .00000109 00000-0 20194-4 0 9993 2 42759 43.0178 259.6018 0011787 223.9741 232.8955 15.09582969110049 CAS-4A 1 42761U 17034D 19164.47599443 .00000191 00000-0 25142-4 0 9990 2 42761 43.0188 258.9646 0011665 225.6710 243.8085 15.09661105110048 UCLSat 1 42765U 17036A 19164.14852981 .00000896 00000-0 41348-4 0 9997 2 42765 97.3513 222.2774 0009871 245.5172 114.5036 15.22723262109621 NIUSat 1 42766U 17036B 19163.71532406 .00000728 00000-0 35738-4 0 9997 2 42766 97.3512 220.2925 0014233 237.9521 122.0333 15.21089042109329 LituanicaSAT 2 1 42768U 17036D 19164.12755035 .00001606 00000-0 71637-4 0 9994 2 42768 97.3547 221.8552 0013669 235.6090 124.3854 15.22760074109460 Aalto 1 1 42775U 17036L 19164.13742787 .00000590 00000-0 29391-4 0 9994 2 42775 97.3499 221.0287 0012595 235.8194 124.1849 15.21323103109363 URSA MAIOR 1 42776U 17036M 19164.16443984 .00000651 00000-0 31978-4 0 9997 2 42776 97.3509 221.2007 0012432 235.5543 124.4518 15.21454234109370 Max Valier Sat 1 42778U 17036P 19163.74305518 .00000728 00000-0 34875-4 0 9996 2 42778 97.3548 221.5408 0010807 241.2329 118.7822 15.21999132109334 Pegasus 1 42784U 17036V 19164.10624371 .00000849 00000-0 39613-4 0 9994 2 42784 97.3518 222.0592 0010462 246.5688 113.4449 15.22471288109415 NUDATSat 1 42787U 17036Y 19164.17334084 .00001294 00000-0 57222-4 0 9994 2 42787 97.3544 222.7894 0010095 253.1431 106.8699 15.23422183109303 SUCHAI 1 1 42788U 17036Z 19163.85204330 .00001048 00000-0 47656-4 0 9996 2 42788 97.3523 222.1049 0010024 246.5328 113.4855 15.22881884109461 SKCUBE 1 42789U 17036AA 19163.80171891 .00000956 00000-0 43854-4 0 9990 2 42789 097.3519 222.0000 0009884 246.8515 113.1680 15.22783482109374 VZLUSAT 1 1 42790U 17036AB 19163.89742677 .00001215 00000-0 53950-4 0 9994 2 42790 097.3534 222.5248 0009459 245.1071 114.9183 15.23422417109410 VENTA 1 1 42791U 17036AC 19163.71012523 .00000864 00000-0 39923-4 0 9999 2 42791 097.3517 221.9618 0009526 247.6865 112.3362 15.22798176109350 Robusta 1B 1 42792U 17036AD 19164.65308855 .00000978 00000-0 44574-4 0 9994 2 42792 97.3519 222.9792 0009486 244.0075 116.0185 15.22949887109526 D-SAT 1 42794U 17036AF 19164.37211627 .00000025 00000-0 75562-5 0 9990 2 42794 97.5398 209.3103 0127252 158.7364 201.9212 14.91091217107549 TechnoSat 1 42829U 17042E 19164.71265212 .00000209 00000-0 26552-4 0 9991 2 42829 97.5650 57.8016 0015800 77.8090 282.4897 14.90970932104190 TOMSK-TPU 120 1 42910U 98067MZ 19164.66415194 .00047226 00000-0 21129-3 0 9992 2 42910 51.6324 315.5270 0003459 185.8904 265.8132 15.83700552104231 TANYUSHA 1 1 42911U 98067NA 19164.88989779 .00128195 17756-4 30405-3 0 9994 2 42911 51.6219 303.2844 0002509 258.7890 188.5290 15.96487892104391 TANYUSHA 2 1 42912U 98067NB 19164.67547553 .00078088 00000-0 25997-3 0 9997 2 42912 51.6281 310.3839 0005052 217.9202 236.1328 15.89547749104307 TNS 0-2 1 42914U 98067ND 19164.68822503 .00050635 00000-0 21965-3 0 9990 2 42914 51.6341 315.9854 0002297 180.9618 179.1381 15.84326259104224 QIKCOM-1 1 42983U 98067NF 19164.76735323 .00002740 00000-0 41250-4 0 9992 2 42983 51.6406 4.9542 0004724 107.0691 253.0820 15.58812299 92578 AO-91 1 43017U 17073E 19164.72555590 .00000235 00000-0 23853-4 0 9997 2 43017 97.7237 86.2811 0258323 174.2847 186.1416 14.78541632 84521 EcAMSat 1 43019U 98067NG 19164.80794731 .00005168 00000-0 65968-4 0 9995 2 43019 51.6412 0.0160 0005176 90.7955 269.3631 15.61182903174962 PICSAT 1 43132U 18004X 19164.18650124 .00000992 00000-0 44528-4 0 9991 2 43132 97.4887 232.0151 0008051 274.6810 85.3508 15.23549137 78660 AO-92 1 43137U 18004AC 19164.17768753 .00000769 00000-0 35272-4 0 9991 2 43137 97.4878 231.9926 0007632 277.0353 83.0016 15.23445059 78652 TianYi 2 1 43155U 18008A 19164.78252025 .00000335 00000-0 23726-4 0 9992 2 43155 97.4866 237.4262 0017322 347.5028 126.9571 15.11126900 77089 Zhou Enlai 1 43156U 18008B 19164.89393628 .00000625 00000-0 41592-4 0 9993 2 43156 97.4907 237.4317 0014309 345.4981 127.4075 15.10629871 77072 TianYi 6 1 43158U 18008D 19164.80698853 .00000964 00000-0 62727-4 0 9993 2 43158 97.4853 236.8378 0013746 342.2967 139.9467 15.10229207 77024 S-Net G 1 43186U 18014G 19164.74483830 .00000202 00000-0 22758-4 0 9996 2 43186 97.7099 73.2710 0011637 29.2045 330.9825 14.96638550 74395 S-Net H 1 43187U 18014H 19164.74466645 .00000197 00000-0 22339-4 0 9990 2 43187 97.7097 73.2593 0011631 29.0909 331.0959 14.96638675 74392 S-Net J 1 43188U 18014J 19164.74445822 .00000191 00000-0 21818-4 0 9990 2 43188 97.7100 73.2757 0011634 29.1760 331.0109 14.96638284 74392 S-Net K 1 43189U 18014K 19164.74478884 .00000203 00000-0 22886-4 0 9995 2 43189 97.7097 73.2569 0011628 29.0864 331.1003 14.96638161 72943 FMN 1 1 43192U 18015A 19164.80344017 .00001490 00000-0 63863-4 0 9996 2 43192 97.3984 292.6111 0015099 315.7056 44.2971 15.24241774 75572 Shaonian Xing 1 43199U 18015H 19164.81608928 .00001086 00000-0 46586-4 0 9992 2 43199 97.3776 291.7601 0016459 327.8469 32.1761 15.24762364 75627 1KUNS-PF 1 43466U 98067NP 19164.80920939 .00017410 00000-0 17185-3 0 9992 2 43466 51.6383 359.2072 0001354 119.5716 240.5415 15.66016668 62152 UBAKUSAT 1 43467U 98067NQ 19164.74416673 .00010444 00000-0 11985-3 0 9993 2 43467 51.6382 3.2720 0002645 70.3520 289.7760 15.62698258 62109 Irazu 1 43468U 98067NR 19164.80713435 .00025410 00000-0 22196-3 0 9992 2 43468 51.6371 356.1724 0001278 141.4041 218.7047 15.68776102162181 EnduroSat One 1 43551U 98067NZ 19163.86925879 .00012162 00000-0 13836-3 0 9998 2 43551 51.6384 10.1776 0006436 124.7456 235.4145 15.62727132 52161 EQUISat 1 43552U 98067PA 19164.80487147 .00010087 00000-0 12105-3 0 9997 2 43552 51.6398 6.6941 0006728 126.3764 233.7852 15.61562973 52250 UiTMSat 1 1 43589U 98067PD 19164.80835248 .00011366 00000-0 13518-3 0 9996 2 43589 51.6371 7.4195 0006064 133.8869 226.2626 15.61649525 47982 Maya 1 1 43590U 98067PE 19163.84363621 .00011464 00000-0 13630-3 0 9996 2 43590 51.6371 12.2310 0006180 130.2806 229.8729 15.61647183 47765 Bhutan 1 1 43591U 98067PF 19164.09047340 .00011421 00000-0 13549-3 0 9994 2 43591 51.6386 10.8977 0006388 132.0068 228.1471 15.61709021 47806 SiriusSat 1 1 43595U 98067PG 19163.81771365 .00009811 00000-0 12087-3 0 9994 2 43595 51.6376 13.5563 0004138 94.1810 265.9657 15.60920484 46928 SiriusSat 2 1 43596U 98067PH 19163.84749623 .00010553 00000-0 13031-3 0 9995 2 43596 51.6386 13.7883 0004679 94.2150 265.9378 15.60759688 46921 Tanusha-3 1 43597U 98067PJ 19164.74626449 .00013223 00000-0 15268-3 0 9997 2 43597 51.6368 7.7329 0004246 111.9712 248.1734 15.62258544 47085 SurfSat 1 43614U 18070B 19164.52080712 .00001773 00000-0 48305-4 0 9992 2 43614 93.0227 1.5418 0014688 335.2100 24.8446 15.37503226 41617 CP-7 DAVE 1 43615U 18070C 19163.81029044 .00001723 00000-0 47065-4 0 9992 2 43615 93.0232 1.2501 0014976 337.3764 22.6828 15.37425000 41504 ELFIN-B 1 43616U 18070D 19163.82041506 .00002681 00000-0 71666-4 0 9999 2 43616 93.0198 1.1695 0015842 341.0985 18.9678 15.38025539 41515 ELFIN-A 1 43617U 18070E 19163.81442973 .00002573 00000-0 68741-4 0 9992 2 43617 93.0254 1.3776 0014861 338.2400 21.8220 15.38067020 41518 STARS-Me Mother 1 43640U 98067PQ 19164.03954584 .00007216 00000-0 99351-4 0 9993 2 43640 51.6383 15.8116 0005986 81.6027 278.5644 15.58427310 38844 CubeBel 1 1 43666U 18083E 19164.87921387 .00000877 00000-0 47008-4 0 9996 2 43666 97.5198 189.3909 0014354 199.5820 284.6058 15.17567516 34550 Changshagaoxin 1 43669U 18083H 19164.76966381 .00000609 00000-0 34428-4 0 9995 2 43669 97.5063 188.6049 0010617 189.1466 170.9575 15.16778278 34481 Ten-Koh 1 43677U 18084G 19164.31776918 .00000126 00000-0 18865-4 0 9992 2 43677 97.8511 278.0829 0014779 302.8108 57.1685 14.90167323 33819 PO-101 1 43678U 18084H 19164.84268557 .00000097 00000-0 15388-4 0 9990 2 43678 97.8503 279.1084 0009536 328.6075 31.4556 14.91555995 33921 IRVINE 01 1 43693U 18088D 19164.68189449 .00001952 00000-0 85067-4 0 9997 2 43693 85.0343 321.4237 0017414 205.1242 154.9155 15.21352225 32604 QO-100 1 43700U 18090A 19163.86127918 .00000134 00000-0 00000-0 0 9992 2 43700 000.0187 022.7710 0001334 057.7533 156.1777 01.00274047001990 Reaktor Hello World 1 43743U 18096AA 19164.85435697 .00000916 00000-0 37708-4 0 9998 2 43743 97.4600 234.8570 0017967 358.9179 107.0952 15.26595976 29998 MinXSS-2 1 43758U 18099A 19163.86518401 .00000316 00000-0 33805-4 0 9990 2 43758 97.7450 235.9867 0015241 352.5299 7.5693 14.95400416 28564 AO-95 1 43770U 18099N 19164.74905959 .00000583 00000-0 58859-4 0 9992 2 43770 97.7454 236.6813 0014334 356.9187 3.1942 14.94761127 28687 RANGE-B 1 43772U 18099Q 19164.73839483 .00000552 00000-0 55886-4 0 9994 2 43772 97.7506 236.8175 0013530 343.9632 16.1158 14.94864220 28678 RANGE-A 1 43773U 18099R 19164.13945796 .00000439 00000-0 45603-4 0 9994 2 43773 97.7401 235.9734 0013008 346.2835 13.8030 14.94797636 28584 MOVE-II 1 43780U 18099Y 19164.65011200 .00000013 00000-0 64995-5 0 9997 2 43780 97.7442 236.6191 0013294 355.5015 4.6084 14.95048172 28652 SNUSat 2 1 43782U 18099AA 19164.64474757 -.00000200 00000-0 -12947-4 0 9997 2 43782 97.7450 236.6541 0012333 344.9330 15.1521 14.95046879 28663 SnugLite 1 43784U 18099AC 19164.76893935 .00000000 00000-0 53027-5 0 9996 2 43784 97.7416 236.7122 0014833 351.9491 8.1489 14.95127911 28691 ITASat 1 1 43786U 18099AE 19164.76704242 .00000034 00000-0 83750-5 0 9993 2 43786 97.7469 236.8479 0014893 350.8282 9.2665 14.95134384 28699 EAGLET 1 1 43790U 18099AJ 19163.84843843 -.00000237 00000-0 -16173-4 0 9998 2 43790 97.7458 236.0295 0013380 359.3220 0.7980 14.95508313 28251 ESEO 1 43792U 18099AL 19164.18053106 -.00000359 00000-0 -27119-4 0 9990 2 43792 97.7438 236.3197 0013152 355.1149 4.9941 14.95504104 28365 CSIM 1 43793U 18099AM 19164.16783644 .00000235 00000-0 26320-4 0 9990 2 43793 97.7403 236.2144 0012685 354.2782 5.8292 14.95685302 28338 Astrocast 0.1 1 43798U 18099AS 19164.15299490 .00000495 00000-0 49579-4 0 9994 2 43798 97.7447 236.3655 0011709 339.2595 20.8150 14.95730673 28590 JO-97 1 43803U 18099AX 19163.88228897 .00000646 00000-0 63848-4 0 9996 2 43803 97.7428 235.8994 0014841 354.6638 5.4422 14.95262319 28559 Suomi 100 1 43804U 18099AY 19164.14949241 .00000630 00000-0 62429-4 0 9997 2 43804 97.7425 236.1618 0014879 353.8745 6.2291 14.95262782 28608 Al Farabi 2 1 43805U 18099AZ 19164.81425766 .00000721 00000-0 70523-4 0 9998 2 43805 97.7428 236.8310 0014842 351.7189 8.3785 14.95317554 28707 PWSat 2 1 43814U 18099BJ 19164.22069959 .00013220 00000-0 10822-2 0 9993 2 43814 97.7777 237.1165 0004614 30.2742 329.8746 14.99430182 28037 CHOMPTT 1 43855U 18104G 19164.17609934 .00000587 00000-0 23563-4 0 9992 2 43855 85.0384 60.0881 0017383 344.5400 15.5311 15.22366162 27188 ISAT 1 43879U 18111D 19164.84304304 .00000718 00000-0 69087-4 0 9990 2 43879 97.7193 72.9205 0014561 45.1885 315.0550 14.95987864 23210 UWE-4 1 43880U 18111E 19164.21365858 .00000413 00000-0 41661-4 0 9994 2 43880 97.7195 72.3837 0013462 48.4973 311.7401 14.96221714 23137 Sparrow 1 43881U 18111F 19164.20859854 .00000266 00000-0 28623-4 0 9997 2 43881 97.7199 72.3987 0013548 47.0096 313.2258 14.96268853 23125 Lume 1 1 43908U 18111AJ 19164.54861789 .00000888 00000-0 38987-4 0 9998 2 43908 97.2909 69.9405 0022157 14.3106 345.8755 15.24319664 25664 FO-98 1 43933U 19003B 19164.75724226 .00000666 00000-0 32350-4 0 9996 2 43933 97.2823 222.4814 0019945 101.3159 18.7630 15.21620892 22304 FO-99 1 43937U 19003F 19164.84014066 .00000999 00000-0 44340-4 0 9995 2 43937 97.2769 222.8664 0026321 89.2474 23.8904 15.23552365 22340 Delphini 1 1 44030U 98067PW 19163.82725857 .00008187 00000-0 12029-3 0 9996 2 44030 51.6395 20.3947 0005375 122.2505 237.9008 15.56439905 20631 MYSat 1 1 44045U 18092F 19164.18625021 .00001623 00000-0 58369-4 0 9990 2 44045 51.6432 37.5593 0012675 69.5976 290.6386 15.34900537 18397 AstroCast 0.2 1 44083U 19018F 19164.74212797 .00000377 00000-0 19931-4 0 9992 2 44083 97.4689 224.7664 0014824 32.2625 327.9514 15.21370111 11166 AISTechSat 3 1 44103U 19018AB 19164.68348474 .00000721 00000-0 33989-4 0 9992 2 44103 97.4568 224.7092 0014914 49.8672 310.3869 15.22615492 11159 AISat 1 1 44104U 19018AC 19164.76594906 .00000826 00000-0 29236-4 0 9991 2 44104 97.5098 226.1407 0060808 84.5055 276.3118 15.30453798 11256 /EX